Regional Weather Roundup
Issued by NWS Boston, MA

Home | Current Version | Previous Version | Text Only | Print | Product List | Glossary On
Versions: 1 2 3 4 5 6 7 8 9 10 11 12 13 14 15 16 17 18 19 20 21 22 23 24 25 26 27
000
ASUS41 KBOX 290510
RWRBOX

REGIONAL WEATHER ROUNDUP
NATIONAL WEATHER SERVICE TAUNTON MA
100 AM EDT SAT APR 29 2017

NOTE:  "FAIR" INDICATES FEW OR NO CLOUDS BELOW 12,000 FEET WITH NO
SIGNIFICANT WEATHER AND/OR OBSTRUCTIONS TO VISIBILITY.

MAZALL-290600-
EASTERN MASSACHUSETTS

CITY           SKY/WX    TMP DP  RH WIND       PRES   REMARKS
BOSTON         CLOUDY    68  58  70 SW10      30.00S
BEVERLY        PTCLDY    62  52  69 CALM      30.00R
LAWRENCE       PTCLDY    64  47  53 S3        30.02R
BEDFORD        CLOUDY    67  54  63 SW5       29.99R
BLUE HILL        N/A     68  55  63 SW9       30.01S
NORWOOD        CLOUDY    65  60  84 CALM      30.00S
MARSHFIELD     PTCLDY    66  57  72 SW5       30.00S
PLYMOUTH       PTCLDY    56  53  90 CALM      30.03R
TAUNTON        CLOUDY    63  54  72 CALM      30.01R
NEW BEDFORD    PTCLDY    57  54  89 SW7       30.02S
$$

MAZALL-290600-
CAPE COD AND THE ISLANDS

CITY           SKY/WX    TMP DP  RH WIND       PRES   REMARKS
FALMOUTH       CLOUDY    55  54  94 MISG      30.05S
HYANNIS        CLOUDY    59  56  89 SW10      30.02S
CHATHAM        PTCLDY    54  54 100 SW9       30.04S FOG
PROVINCETOWN   CLOUDY    55  52  89 SW9       30.03R
NANTUCKET      CLOUDY    53  52  96 W14       30.05S FOG
MARTHAS VNYRD  CLOUDY    55  53  93 VRB6      30.05R
$$

MAZALL-290600-
CENTRAL AND WESTERN MASSACHUSETTS

CITY           SKY/WX    TMP DP  RH WIND       PRES   REMARKS
WORCESTER      PTCLDY    62  52  69 SW9       30.04S
FITCHBURG      PTCLDY    59  52  77 CALM      30.01S
ORANGE         CLOUDY    54  52  93 CALM      30.03R
SPRINGFIELD    PTCLDY    59  55  88 CALM      30.01R FOG
WESTFIELD      MOCLDY    59  56  89 NW3       30.02R
NORTH ADAMS    CLOUDY    56  50  80 E3        30.03S
PITTSFIELD     CLOUDY    55  50  83 NE5       30.03S
$$

RIZALL-290600-
RHODE ISLAND

CITY           SKY/WX    TMP DP  RH WIND       PRES   REMARKS
PROVIDENCE     PTCLDY    56  54  93 S3        30.02S
NEWPORT        PTCLDY    54  53  97 VRB5      30.03S
BLOCK ISLAND   CLOUDY    54  52  93 SW18      30.05S
SMITHFIELD     CLOUDY    65  53  65 VRB5      30.03R
WESTERLY       CLOUDY    56  52  86 S5        30.05S
$$

CTZALL-290600-
CONNECTICUT

CITY           SKY/WX    TMP DP  RH WIND       PRES   REMARKS
BRADLEY INTL   CLOUDY    65  56  72 SE5       30.02S
HARTFORD       CLOUDY    64  56  75 S6        30.01S
BRIDGEPORT     CLOUDY    60  52  74 SW5       30.04R
DANBURY        CLOUDY    59  56  89 SW3       30.05S
GROTON         PTCLDY    53  50  89 SW3       30.04R
NEW HAVEN      PTCLDY    57  53  86 S3        30.04R
CHESTER        FAIR      64  54  68 W6        30.04R
MERIDEN        CLOUDY    60  56  86 CALM      30.02F
WILLIMANTIC    CLOUDY    63  57  81 NE3       30.03S
OXFORD         CLOUDY    66  46  48 W3        30.05F
$$

MEZ002-015-021-024-NHZ003-005-008-011-012-014-VTZ005-008-290600-
NORTHERN NEW ENGLAND

CITY           SKY/WX    TMP DP  RH WIND       PRES   REMARKS
PORTLAND ME    CLEAR     47  45  93 CALM      29.97R
BANGOR ME      FOG       49  49 100 S3        29.94F VSB 1/8
CONCORD NH     CLOUDY    55  44  66 CALM      30.01R
MANCHESTER NH  PTCLDY    62  42  47 CALM      29.99R
NASHUA NH      CLOUDY    58  49  72 CALM      30.01R
PORTSMOUTH NH  MOCLDY    60  40  47 CALM      29.98R
JAFFREY NH     CLOUDY    52  50  93 S5        30.04R
KEENE NH       CLOUDY    54  49  83 CALM      30.03R
BURLINGTON VT  CLOUDY    65  36  34 SE3       29.96S
MT. WASHINGTON CLOUDY    41  34  75 W54         N/A  WCI  27
$$

NYZ052-076-290600-
EASTERN NEW YORK

CITY           SKY/WX    TMP DP  RH WIND       PRES   REMARKS
ALBANY         CLOUDY    63  52  67 CALM      30.01S
NEW YORK CITY  CLOUDY    74  52  46 SW9       30.05R
$$

ANZALL-290600-
MARINE OBSERVATIONS

STATION/POSITION TIME  TEMP    WIND        PRES    VSBY  WAVE
                       AIR SEA DIR/SP/G                  HT/PER
                 (UTC) (F)     (DEG/KT/KT) (MB)    (MI)  (FT/S)
BOSTON BUOY      0350   62 48  260/  8/  8 1015.1          2/ 9
BUZZARDS BAY     0400   51     220/ 13/ 14 1017.4F
NANTUCKET SOUND  0450      50              1017.2R         1/ 8
MASS BAY-STELLWA 0404   56 47  220/  8/ 10 1014.6S         3/ 9
ISLE OF SHOALS   0400   71     240/ 11/ 12 1014.7R
S OF BLOCK IS    0455      49                N/A           4/ 8
$$

......................KEY.........................
  SKY/WX - SKY CONDITION/PRESENT WEATHER
  TMP    - TEMPERATURE IN FAHRENHEIT
  DWPT   - DEWPOINT IN FAHRENHEIT
  RH     - RELATIVE HUMIDITY IN PERCENT
  WIND   - DIRECTION AND SPEED IN MPH
  PRES   - MEAN SEA LEVEL PRESSURE IN INCHES OF HG
  WCI    - WIND CHILL INDEX
  VSB    - VISIBILITY IN MILES
  HX     - HEAT INDEX
  TC     - TEMPERATURE IN CELSIUS
  VRB    - VARIABLE WIND DIRECTION
  N/A    - NOT AVAILABLE




USA.gov is the U.S. government's official web portal to all federal, state and local government web resources and services.